Theta_e
310 310 309 309 308 308 307 307 307 307 307 307 307 307 307 308 308 309 310 311 311 310 310 310 310 311 311 311 311 311 312 313 314 315 317 318 315 314 314 313 313 313 313 313 314 315 316 316 316 315 317 317 318 318 318 317 316 321 327 326 321 322 320 318 320 321 321 319 316 316 317 317 317 317 316 316 316 316 316 315 315 314 314 314 313 313 313 313
308 308 307 307 307 307 307 307 307 307 307 307 307 307 308 308 309 310 310 310 310 310 310 310 310 311 311 311 311 311 312 312 314 317 317 314 313 314 313 312 313 314 314 315 314 315 316 316 316 315 316 316 317 318 320 320 318 322 330 326 320 322 319 317 318 317 318 318 316 317 317 317 317 317 317 317 315 315 316 314 313 314 314 313 312 313 312 312
307 307 307 307 307 307 307 307 307 308 308 308 308 308 308 309 309 309 309 309 310 310 310 310 310 310 311 311 311 311 312 313 316 318 315 313 314 313 313 313 314 315 315 316 315 315 316 315 315 315 315 315 317 319 319 320 319 319 327 327 319 319 317 316 317 316 317 318 316 317 317 317 317 317 317 317 315 315 316 314 314 314 314 313 312 312 312 313
307 307 307 307 307 307 308 308 308 308 308 308 308 308 308 309 309 309 309 309 310 310 310 310 310 310 311 311 311 311 313 317 318 316 313 313 313 313 314 315 314 315 315 315 316 315 315 315 315 315 315 316 316 317 318 319 319 319 323 324 317 316 318 317 317 317 317 317 317 318 317 317 317 317 317 316 316 316 315 315 315 315 315 314 313 313 313 313
308 308 308 308 308 308 308 308 308 308 308 308 308 308 308 309 309 309 309 309 310 310 310 310 310 311 310 311 311 311 315 320 318 313 313 313 313 313 315 314 314 314 314 315 316 316 316 316 316 316 315 315 316 318 319 318 318 319 319 319 317 316 318 317 317 317 317 317 317 317 316 317 316 317 317 316 318 319 315 315 316 316 316 315 314 313 313 313
309 309 309 309 309 309 309 309 309 309 308 308 309 309 309 309 309 309 309 310 310 310 310 310 310 310 310 311 311 312 316 319 315 313 314 313 313 314 314 314 314 313 314 315 317 317 317 316 316 316 316 315 317 319 318 317 318 321 319 316 317 317 317 317 317 317 316 316 317 316 316 317 316 316 317 316 317 318 316 315 316 316 315 314 314 314 313 313
311 311 311 311 310 310 310 310 310 309 309 309 309 309 309 309 309 309 309 310 310 310 310 310 310 310 311 310 311 314 318 318 315 315 314 314 314 314 314 314 314 313 313 314 317 318 316 316 316 315 316 316 316 317 318 316 317 321 320 316 317 317 317 317 317 317 316 316 316 316 316 316 316 316 316 316 316 317 316 315 315 315 314 313 314 313 313 313
311 311 311 311 311 311 311 311 311 310 310 310 310 309 310 309 309 309 309 310 310 310 310 310 310 310 310 311 312 314 317 318 317 316 315 314 314 313 314 314 313 314 314 315 318 318 317 317 316 315 316 316 316 316 316 317 318 319 319 317 317 318 317 317 317 317 316 316 316 316 316 316 316 316 315 316 316 316 316 315 314 313 313 312 313 313 312 313
311 310 310 310 310 310 310 310 310 311 311 311 311 310 310 310 310 310 309 310 310 310 310 310 310 310 310 311 313 315 318 320 317 316 316 315 314 314 314 314 314 315 315 318 318 317 317 316 316 316 316 316 317 316 316 319 318 317 318 317 317 317 317 317 317 316 316 316 316 316 316 316 316 315 315 315 316 316 315 314 313 312 312 312 312 312 312 312
310 309 309 309 309 309 309 309 310 310 310 310 311 311 310 310 310 310 310 310 309 309 309 309 310 310 311 312 316 318 319 320 318 317 317 316 316 316 317 316 317 317 317 318 318 317 317 317 317 315 316 316 316 316 316 318 318 316 317 317 317 317 317 317 317 317 317 316 316 316 316 316 315 315 316 315 314 314 314 313 312 312 312 311 312 312 312 312
309 309 309 308 308 308 308 308 309 309 309 310 310 310 311 310 310 310 310 309 310 309 309 309 309 310 311 313 316 319 320 320 318 318 317 317 317 318 319 319 319 319 319 319 318 318 317 317 317 315 316 316 316 317 316 317 317 316 316 317 317 317 317 317 316 316 316 316 316 316 315 314 314 315 316 314 314 314 313 312 311 311 311 311 311 311 312 312
309 309 308 308 308 308 308 308 308 308 308 309 309 309 310 310 310 310 309 309 309 309 309 309 309 310 311 312 313 316 319 320 319 317 317 317 317 318 318 318 319 319 319 319 319 319 318 317 316 315 316 316 317 317 316 317 316 316 316 318 320 318 318 317 316 316 316 316 316 315 316 317 315 314 315 314 314 313 312 312 311 311 311 311 311 311 311 312
309 308 308 308 308 308 308 308 308 308 308 309 309 309 309 310 310 310 310 309 309 309 309 309 309 310 311 312 313 314 317 318 318 317 317 317 317 318 318 318 318 318 319 319 319 319 318 317 316 316 316 316 317 316 317 317 315 318 316 316 322 322 323 320 315 317 316 316 316 315 319 324 320 313 313 314 313 312 311 311 311 310 311 310 310 311 311 312
308 308 308 308 307 307 307 308 308 308 308 309 309 308 308 308 309 310 310 309 309 309 309 310 310 311 312 313 315 315 316 317 317 317 317 317 317 318 318 318 318 318 318 318 318 318 318 317 316 316 316 316 317 316 318 316 316 319 317 319 322 321 329 324 314 316 317 315 315 316 319 325 323 313 311 313 312 312 311 310 310 310 310 310 310 310 311 311
308 308 308 308 308 307 307 307 308 308 308 309 308 308 308 307 308 309 309 309 309 308 309 311 311 313 314 314 314 315 316 317 317 317 317 316 317 318 318 318 318 317 318 318 318 317 317 317 316 316 316 316 316 317 322 322 321 319 319 329 326 320 331 326 313 315 317 314 313 316 319 322 320 313 311 312 311 311 311 311 310 310 310 310 310 310 310 311
308 308 308 308 308 307 307 307 307 308 308 308 308 308 308 307 307 308 309 308 308 309 310 312 313 314 316 316 315 316 316 316 316 316 316 316 317 318 318 318 317 317 317 317 317 317 316 316 316 316 315 317 319 323 329 329 329 324 320 329 329 321 326 324 315 315 315 314 313 315 319 322 319 312 311 312 311 311 311 311 310 310 310 310 310 310 310 311
309 308 308 308 307 307 307 307 307 307 307 308 308 308 308 307 307 307 308 308 308 310 312 314 315 315 315 315 315 316 316 316 316 316 317 317 317 317 317 317 317 317 317 317 317 316 315 315 316 318 317 317 320 326 331 327 329 330 321 322 327 324 322 322 320 316 313 315 315 314 316 319 318 311 310 312 311 311 311 311 311 310 310 310 310 310 310 311
309 309 308 308 307 307 307 307 307 307 307 307 307 308 308 307 306 306 307 308 309 311 313 315 316 314 314 315 315 316 316 316 316 316 317 317 317 317 317 317 317 316 316 316 316 315 315 315 317 320 320 318 319 324 328 326 330 333 327 323 325 325 323 323 323 318 314 316 317 316 315 316 316 312 310 311 311 310 311 311 311 311 310 310 309 310 311 312
308 308 308 308 308 307 307 307 307 306 307 307 307 307 307 307 307 306 307 309 311 312 313 315 314 313 315 315 314 315 316 316 317 316 317 317 317 316 316 316 316 316 316 317 317 315 316 317 319 322 321 320 319 321 325 326 330 332 330 329 327 325 324 323 322 318 315 316 317 316 316 316 316 315 311 310 311 310 310 311 311 311 310 310 310 310 310 311
308 308 308 308 308 307 307 307 307 307 307 307 307 307 307 309 310 310 309 310 311 310 312 315 314 313 316 317 315 316 317 316 317 317 317 317 316 316 316 316 316 316 316 320 320 315 316 321 323 323 322 321 319 319 320 322 324 323 323 326 326 324 324 324 322 317 314 317 320 318 316 316 317 317 313 310 311 309 309 310 310 311 311 310 310 310 310 310
309 308 308 307 308 307 307 307 307 307 307 307 307 307 308 311 312 313 313 312 310 308 310 313 315 314 315 317 317 317 317 317 317 317 317 316 316 316 317 316 317 319 317 318 318 315 317 321 323 323 320 318 319 319 318 319 320 320 320 322 323 324 324 323 321 317 314 317 323 321 318 318 318 318 315 311 309 309 309 310 310 311 311 311 310 309 309 309
312 309 308 307 307 307 307 307 307 307 307 307 307 307 309 312 312 313 315 316 314 312 311 311 312 315 315 316 318 317 317 317 318 318 317 316 316 317 317 317 319 322 319 318 319 319 320 321 320 319 317 317 320 320 318 319 319 321 322 320 323 325 324 323 321 318 315 318 325 325 321 320 319 319 316 311 309 311 311 312 311 311 311 311 310 309 309 309
316 312 310 308 307 307 307 307 307 307 307 308 307 307 310 314 314 314 315 316 317 315 314 314 312 313 315 317 318 317 317 318 318 318 316 315 316 316 316 318 319 320 320 320 323 322 323 326 321 315 316 319 321 320 320 320 320 323 323 320 324 325 323 324 323 319 317 318 321 322 320 318 317 318 318 314 312 312 313 312 312 311 311 311 311 311 310 309
318 316 313 310 308 308 307 307 308 309 308 308 308 307 310 315 316 316 315 316 318 315 312 314 314 312 314 317 318 318 317 317 318 317 317 316 316 316 316 317 319 319 319 319 321 322 323 324 319 316 318 319 320 321 321 321 322 326 326 323 325 325 322 323 323 320 321 322 320 319 321 322 321 320 319 317 313 312 312 311 311 310 311 311 311 310 310 310
319 318 316 313 311 309 308 310 311 310 308 308 308 306 309 314 317 316 314 315 319 318 314 313 315 315 314 315 317 317 317 317 317 317 317 316 316 317 316 316 318 319 319 319 319 320 320 318 317 320 321 320 320 321 324 325 323 325 328 326 323 323 324 323 323 321 325 329 324 320 325 332 332 326 322 320 316 314 312 310 310 311 311 311 310 310 309 309
319 319 317 315 313 310 310 311 312 310 308 308 308 307 310 314 316 315 313 317 318 317 317 316 316 317 315 316 317 316 317 317 317 317 316 316 316 317 318 317 317 318 318 318 319 320 319 318 319 322 323 323 322 321 325 326 322 323 327 327 324 322 322 323 321 322 328 331 324 320 326 330 328 324 323 323 321 319 315 310 310 310 311 311 310 310 309 309
320 319 318 317 315 311 311 312 312 309 309 309 307 308 312 315 314 313 312 317 317 315 319 318 316 318 317 317 316 315 317 318 318 318 317 317 317 317 319 319 317 317 316 318 321 321 320 319 321 322 323 325 323 322 325 323 324 327 326 327 329 323 322 324 322 323 329 329 323 322 325 325 323 323 322 322 322 321 317 313 310 309 310 311 310 310 310 310
321 319 318 318 317 312 311 312 312 310 309 310 308 308 313 315 313 314 314 315 317 317 320 319 316 317 317 317 317 316 317 318 319 319 317 317 317 317 318 318 318 319 317 318 322 321 319 321 324 323 322 324 324 326 326 322 323 327 324 327 329 325 326 328 325 325 326 325 324 325 323 323 325 327 323 320 321 321 318 316 312 308 309 309 309 310 309 310
322 320 318 318 317 314 311 313 314 312 309 310 310 309 314 315 313 316 316 314 318 321 318 318 317 316 317 317 316 316 316 316 318 318 317 316 317 317 317 317 317 318 317 317 322 323 320 319 320 323 323 324 325 326 325 324 322 321 321 326 330 329 329 328 326 326 325 323 325 325 323 323 326 327 324 320 322 323 320 318 314 309 309 309 309 309 309 309
322 320 319 318 317 315 312 313 314 312 310 310 311 311 314 315 313 316 317 313 316 322 317 316 318 317 316 317 316 317 317 316 316 316 316 316 316 316 316 317 315 319 322 321 322 321 318 314 315 320 321 319 321 319 317 320 319 318 323 329 330 329 329 328 327 325 324 324 324 325 324 323 325 329 327 322 324 324 320 319 317 311 309 309 309 309 309 308
322 320 319 318 317 315 314 313 313 312 311 311 312 314 315 317 315 315 317 312 311 318 316 316 319 317 316 318 318 317 317 315 314 316 317 316 316 315 316 318 317 321 324 323 324 320 317 317 317 317 316 315 319 318 315 317 317 319 329 330 327 328 328 327 324 322 324 326 325 324 322 321 324 329 329 324 322 323 322 321 321 314 309 309 309 309 308 308
322 321 319 319 318 316 315 314 313 312 312 312 314 315 315 317 318 316 315 311 311 318 319 319 319 318 317 318 319 318 318 317 314 316 318 317 317 317 316 319 319 321 322 321 323 321 319 321 319 316 314 315 322 322 319 320 320 322 327 326 324 325 327 327 324 323 324 324 322 321 321 321 322 324 324 322 320 322 320 317 317 313 309 309 309 308 308 308
322 322 320 319 318 316 315 314 314 312 313 314 315 316 316 316 317 316 313 312 316 320 320 320 319 318 318 320 320 318 318 319 316 315 317 316 318 317 317 319 319 322 327 323 320 322 324 323 319 317 317 316 320 322 321 322 321 321 322 324 325 324 326 328 326 324 325 325 320 317 319 323 323 323 323 321 318 318 315 312 314 314 312 312 310 309 308 307
321 322 321 320 319 318 315 313 313 313 314 315 315 318 318 315 315 316 314 313 317 321 321 320 320 318 318 321 322 319 319 320 316 316 318 317 319 319 318 319 317 320 328 323 319 321 325 325 322 320 318 318 318 319 322 323 320 319 321 323 325 327 331 331 328 327 328 327 320 315 320 327 327 326 322 314 311 312 312 313 314 313 313 312 310 308 308 307
321 321 321 320 319 318 316 313 314 315 316 316 316 318 317 314 314 316 315 313 315 321 322 319 320 319 319 322 322 318 320 321 317 317 320 318 319 319 318 318 316 318 324 322 321 321 321 326 325 318 316 318 318 317 319 321 320 319 322 324 324 327 329 327 326 324 323 324 321 317 323 327 324 322 316 309 309 310 310 311 311 311 310 309 308 307 307 306
321 321 320 320 320 319 317 314 314 316 316 316 317 319 317 315 315 314 314 313 312 318 321 319 321 322 321 322 322 318 319 321 319 318 320 318 318 318 318 318 316 316 319 320 323 323 321 325 322 315 315 315 316 317 316 318 322 320 320 322 321 324 325 325 325 321 319 323 324 320 323 324 321 320 317 314 314 313 310 308 308 308 307 307 306 306 306 306
322 320 319 319 319 319 318 314 314 316 316 316 318 319 317 316 315 313 314 313 312 316 321 320 321 323 321 321 323 320 319 321 319 319 320 319 319 319 318 318 316 315 317 319 323 326 325 326 319 316 319 314 311 315 315 314 318 321 321 320 319 322 326 327 327 324 323 325 324 322 323 324 323 322 319 315 316 317 315 310 307 305 305 305 306 306 306 306
320 319 318 319 318 319 318 315 314 316 317 317 317 317 317 316 314 313 313 313 314 318 320 318 319 322 322 322 323 321 320 322 320 319 322 320 320 321 318 319 318 315 316 317 321 326 326 326 320 316 319 315 311 316 318 314 314 318 320 319 320 326 326 325 325 326 327 326 326 325 324 322 322 322 321 317 317 320 318 312 309 307 304 304 305 305 305 305
318 317 317 318 318 319 318 315 314 316 317 318 316 316 317 316 314 313 313 312 315 318 318 317 318 321 322 322 322 321 320 321 319 319 322 321 320 320 317 319 320 316 315 316 320 325 324 325 324 315 315 316 314 317 322 319 315 315 316 316 321 326 325 324 324 324 327 327 326 327 325 323 321 321 323 321 319 319 316 313 312 308 304 304 305 305 304 305
316 316 316 317 317 318 318 315 315 316 318 318 316 314 315 316 314 313 313 313 315 318 317 317 318 319 322 322 322 322 320 320 319 318 321 321 320 320 318 319 321 317 315 315 319 323 323 323 324 316 314 316 317 319 321 320 317 317 318 318 319 320 320 323 323 323 327 328 327 326 324 325 325 321 319 321 321 319 316 314 312 307 305 306 306 305 306 306
314 314 315 316 317 318 317 315 315 316 318 317 315 314 314 315 315 314 313 313 315 318 318 318 318 318 320 321 321 322 320 320 319 318 320 320 320 322 320 318 320 318 317 317 319 322 322 324 325 319 315 318 320 320 317 317 318 318 318 319 319 318 320 323 322 322 323 324 327 327 324 325 326 321 317 318 320 318 313 313 311 307 306 307 306 307 307 307
313 314 313 314 316 317 316 316 316 316 316 316 314 314 314 315 316 315 314 313 315 318 319 320 320 318 318 320 321 322 321 320 319 318 320 319 319 321 320 318 318 317 317 318 319 319 321 325 325 322 318 317 319 318 313 315 319 318 318 320 319 318 320 323 323 323 321 321 323 324 324 323 319 319 320 317 315 314 311 310 309 308 308 308 307 307 307 307
312 313 313 314 316 317 316 317 317 316 315 314 314 315 314 315 316 316 315 315 315 317 319 320 321 319 319 320 320 321 321 320 320 319 319 320 319 319 318 318 318 318 318 320 319 318 321 323 323 323 321 316 316 318 315 315 317 318 319 321 319 318 319 321 323 324 323 323 322 321 324 322 315 316 315 310 309 312 311 310 310 309 309 308 307 307 307 306
312 312 312 312 315 317 317 317 317 315 313 313 314 315 315 315 315 316 316 316 316 317 318 318 319 320 321 322 323 323 322 321 321 319 320 321 320 318 317 318 318 318 319 320 320 319 322 323 323 325 325 321 319 321 319 316 316 318 320 319 316 317 318 319 321 322 322 322 322 322 323 321 318 317 313 311 312 312 309 310 310 310 309 308 307 307 306 305
313 313 312 312 314 316 317 317 316 313 312 312 313 314 315 315 315 316 317 316 316 317 317 317 318 319 321 324 324 323 322 323 324 323 321 321 321 318 317 318 319 318 319 319 318 319 322 323 323 324 325 325 324 324 322 318 316 317 319 318 316 317 318 319 320 321 321 321 322 322 322 321 321 317 315 316 317 315 311 310 310 310 310 309 308 307 306 305
313 313 313 314 315 316 317 316 316 314 312 312 313 314 315 316 315 315 316 317 317 317 317 317 318 319 320 322 323 323 322 322 324 324 322 323 324 320 316 317 318 318 318 318 317 319 321 320 321 323 324 324 324 323 322 320 317 317 318 318 317 317 317 318 320 320 321 322 321 320 320 322 321 319 319 320 319 318 316 310 308 310 309 309 309 308 306 306
312 312 313 314 315 314 314 315 316 316 315 314 314 314 314 315 316 315 316 317 317 317 317 318 318 319 320 320 321 323 322 320 321 322 321 323 325 320 316 317 318 317 317 317 316 320 324 321 320 323 323 322 323 321 320 320 319 318 318 317 317 316 317 318 319 319 322 323 322 321 320 321 320 319 321 321 319 319 316 309 307 310 309 309 309 308 306 306
312 312 312 313 314 315 313 313 314 315 316 315 314 314 314 314 315 316 316 316 316 317 318 318 318 319 320 319 320 321 321 321 321 321 321 321 322 321 319 318 315 313 315 316 315 319 324 321 320 322 322 321 321 320 320 320 319 318 318 317 317 316 316 317 318 318 320 321 321 321 322 322 320 318 320 319 317 316 314 311 310 310 309 308 307 306 306 306
312 312 312 312 313 314 313 312 312 315 315 315 314 315 314 314 314 315 316 316 316 316 317 318 318 318 319 319 319 319 319 320 321 320 320 320 321 322 321 319 316 312 313 316 315 314 319 321 320 320 321 320 320 320 319 319 318 318 317 316 316 316 316 316 317 317 318 319 319 320 321 321 319 320 321 317 314 312 311 310 310 310 309 308 307 306 306 306
311 311 312 312 312 313 312 312 312 314 314 314 314 314 314 315 315 315 315 316 317 316 316 317 317 317 318 318 318 319 319 319 320 320 319 319 320 320 321 321 320 314 310 314 315 312 314 320 321 320 320 320 320 319 319 320 319 319 318 317 316 315 315 315 316 316 317 318 318 318 320 319 316 318 320 315 312 311 310 309 309 309 309 308 307 307 306 306
308 309 310 310 311 312 312 312 313 314 314 314 313 313 314 314 314 314 315 315 316 317 316 316 317 317 318 318 318 319 318 318 318 318 318 319 318 319 319 319 319 317 313 314 316 313 313 318 321 320 320 320 320 319 319 319 319 319 319 319 317 316 315 314 315 316 316 317 318 317 318 318 316 317 316 313 311 311 309 308 308 308 309 309 308 307 307 306
306 307 308 308 310 312 312 312 313 314 314 314 313 313 313 314 314 314 316 315 315 316 316 316 317 318 318 318 318 318 317 317 318 317 317 318 316 316 317 315 316 319 317 314 314 314 315 318 319 319 320 320 320 320 319 318 319 320 320 319 318 317 316 315 315 315 315 316 318 318 318 317 317 319 318 316 315 313 309 309 310 309 308 308 309 309 308 307
Wind_Speed
9 9 9 9 8 9 8 8 8 8 8 9 9 9 10 10 10 10 10 8 7 6 4 3 2 2 1 1 1 1 1 3 5 4 1 2 4 3 2 4 5 4 3 2 2 3 5 5 4 4 4 4 4 5 5 6 7 4 2 4 1 0 1 2 1 3 6 5 5 8 6 5 5 4 6 6 7 10 7 6 6 4 5 5 5 6 5 5
9 9 8 8 8 8 8 8 8 8 9 9 9 9 10 10 10 10 9 8 6 5 4 3 2 2 1 1 1 2 1 3 4 3 4 4 2 3 5 7 5 5 4 3 2 2 4 4 2 3 4 3 2 4 4 5 7 4 3 4 0 2 2 3 3 4 6 7 8 7 6 7 8 7 6 3 7 12 8 6 7 7 7 6 5 5 6 7
9 8 8 8 8 8 8 8 7 7 8 8 9 9 9 9 9 8 8 7 6 5 4 3 2 1 1 2 2 3 4 4 3 3 5 3 3 7 9 8 7 7 7 6 4 3 3 3 2 3 5 2 2 3 4 5 5 3 3 4 2 4 3 7 10 9 8 12 10 7 6 8 7 6 6 2 6 8 6 8 8 8 9 7 6 6 6 7
8 8 8 7 7 7 7 7 7 7 7 7 7 8 8 8 8 8 7 7 6 5 4 3 2 1 2 2 3 4 5 2 2 2 5 5 7 9 10 9 8 8 8 7 5 5 3 3 3 3 4 1 2 3 3 5 4 2 3 3 3 3 4 5 8 10 10 13 12 8 5 5 6 6 5 3 4 2 6 12 11 11 12 11 9 8 8 8
8 8 7 7 7 7 7 7 7 7 7 7 7 7 8 8 8 7 7 7 6 5 4 3 2 2 2 3 3 4 4 2 3 3 4 6 7 9 9 8 6 5 7 7 6 7 5 4 4 3 2 1 2 3 2 5 5 2 2 4 3 5 3 2 5 6 7 9 10 7 5 5 6 6 4 4 3 4 9 13 13 13 13 10 10 10 9 8
9 9 8 8 8 7 7 7 7 7 7 7 7 7 7 7 7 7 7 6 6 5 4 3 3 2 2 3 3 3 2 1 3 3 4 5 7 8 8 6 3 2 5 7 6 6 4 3 4 4 2 0 2 3 2 4 4 2 0 3 7 6 5 4 3 4 4 6 7 5 5 6 5 2 4 7 7 7 10 13 14 13 11 8 9 11 11 9
9 9 9 9 9 9 8 8 8 7 7 7 7 7 7 7 6 7 7 6 5 5 4 4 4 3 3 3 3 2 2 1 5 4 3 4 5 6 6 5 3 2 5 7 5 4 4 4 5 5 3 3 2 3 2 3 4 3 0 1 5 4 6 5 3 3 3 3 4 3 4 5 4 2 4 7 9 9 11 14 14 12 10 9 9 12 12 11
10 9 9 9 9 9 9 9 9 8 8 8 7 7 7 7 7 7 7 6 6 5 5 5 4 4 3 3 3 2 2 3 6 5 3 4 5 5 6 5 5 5 6 5 4 3 4 6 6 5 3 3 3 2 3 4 4 4 1 1 2 1 4 4 4 4 4 3 4 3 4 6 6 4 5 8 10 11 12 14 13 11 10 10 11 13 13 12
11 10 10 9 9 9 9 8 8 9 9 9 8 8 8 8 8 7 7 7 6 6 6 5 5 5 4 3 3 2 2 5 6 5 3 4 5 6 6 7 7 7 6 2 2 2 2 5 5 5 3 2 4 3 3 4 2 1 1 2 2 1 3 6 7 7 7 6 6 5 6 8 8 5 6 9 13 13 13 13 12 11 11 11 12 14 13 12
12 12 11 10 10 9 9 8 8 8 8 9 9 9 9 9 9 8 8 8 7 7 6 6 6 5 4 4 4 2 4 7 5 4 3 2 3 4 5 5 6 5 4 1 4 2 2 2 2 3 2 2 4 2 2 3 1 0 1 3 5 7 7 8 10 10 8 7 8 6 4 7 6 4 5 9 15 15 14 12 11 12 12 13 14 15 14 13
15 14 13 12 11 11 10 9 9 8 8 9 9 9 10 10 10 10 9 9 8 8 7 7 6 6 5 5 6 4 5 7 4 3 2 1 2 2 3 2 2 2 3 2 3 2 1 1 2 1 1 2 3 1 2 3 2 1 2 5 8 9 10 10 11 11 9 6 10 9 3 4 3 4 7 12 17 15 15 14 13 13 13 14 15 15 15 13
17 16 15 14 13 12 11 10 10 9 9 8 9 9 10 10 11 10 10 10 9 8 8 7 7 7 6 7 9 6 5 7 4 3 4 3 3 3 3 2 1 2 3 2 2 3 3 2 2 1 1 1 1 2 2 1 1 1 1 3 6 7 6 11 13 13 11 4 8 9 2 4 5 6 8 12 17 16 14 14 14 15 14 15 15 15 14 13
18 17 16 15 14 13 12 11 11 10 9 9 8 9 10 11 11 11 11 10 10 9 8 8 7 7 6 7 8 7 7 8 7 7 7 5 5 5 5 4 3 2 3 2 2 3 3 3 2 2 1 1 1 1 1 1 1 2 1 1 3 6 5 9 10 13 11 4 9 9 2 6 6 7 8 12 17 17 15 15 16 16 16 16 16 15 14 12
20 19 18 17 16 15 14 13 12 11 10 10 9 9 10 11 11 12 11 11 10 9 8 8 7 7 7 6 6 7 8 9 9 9 8 8 7 6 7 6 5 4 3 3 2 2 3 3 3 2 1 1 0 1 1 1 1 1 1 1 1 2 5 6 3 13 9 4 11 9 1 7 7 6 11 14 17 18 17 17 17 18 17 17 16 15 14 13
22 21 20 19 18 16 16 14 13 12 11 11 10 10 10 11 12 12 11 11 10 9 8 7 6 6 6 7 8 9 10 11 12 11 10 10 9 7 7 7 7 6 5 4 4 3 3 4 4 2 1 2 2 2 2 3 1 1 1 3 2 2 5 6 3 13 8 3 9 7 1 7 7 7 14 15 17 18 18 19 19 20 19 18 17 16 15 15
23 22 22 21 20 19 17 16 14 14 12 11 11 11 11 11 12 12 12 11 10 8 7 6 6 5 4 6 8 8 11 14 13 12 11 10 9 9 7 7 7 6 5 5 4 4 5 5 4 3 3 3 3 4 4 4 4 2 2 3 2 2 3 4 2 9 8 5 6 5 2 4 5 9 16 16 19 20 18 19 21 21 21 20 19 18 18 17
23 24 23 22 22 21 19 18 17 15 14 13 12 11 11 11 12 12 12 11 9 8 6 5 5 4 5 7 8 10 14 14 12 10 8 8 9 9 7 6 5 5 4 5 5 5 6 6 4 3 2 1 2 5 4 2 4 4 0 3 4 3 2 2 4 5 8 7 5 5 4 6 5 8 17 19 21 21 20 22 24 24 23 22 21 20 21 20
22 23 24 24 23 22 21 20 18 17 15 14 13 12 12 12 12 12 11 11 9 6 5 6 5 1 7 12 12 12 13 12 11 9 8 9 9 7 6 4 4 5 5 5 5 7 7 4 3 1 1 1 1 5 3 4 4 3 3 2 4 3 2 4 3 3 8 5 4 5 5 10 9 7 16 21 22 24 25 25 25 26 26 24 24 23 23 22
20 22 23 24 24 24 23 22 19 18 17 16 14 13 12 11 10 11 11 11 11 7 3 10 13 4 2 11 15 13 10 10 10 9 10 10 9 8 7 5 5 7 7 4 3 7 8 3 3 2 1 4 5 6 7 8 7 6 5 4 4 3 4 4 4 5 8 4 5 7 7 10 10 8 13 20 24 26 26 23 21 25 26 26 25 25 24 23
17 20 21 23 24 25 24 23 20 18 18 16 14 12 9 7 4 6 11 15 18 15 8 9 15 12 3 4 11 13 10 10 10 11 11 10 10 10 9 7 7 5 4 4 3 5 7 3 2 5 6 7 8 9 9 7 6 4 3 3 4 4 5 4 3 4 6 4 6 9 8 9 10 8 12 20 23 22 23 21 22 25 28 29 28 27 26 24
14 17 20 21 22 23 24 23 21 20 19 16 15 12 8 8 5 4 9 14 20 24 20 12 12 15 11 5 8 11 11 11 11 12 11 12 12 10 10 9 7 2 4 5 4 2 5 4 6 8 8 8 8 9 9 7 6 6 4 4 5 3 5 5 3 3 3 3 5 5 6 9 10 8 11 15 15 18 25 26 25 28 29 31 31 29 27 25
13 16 17 18 19 21 22 23 22 21 20 18 17 14 11 11 11 9 6 8 14 19 23 22 19 18 17 12 10 12 11 9 10 13 14 16 15 11 11 9 4 3 4 4 4 2 3 4 9 11 9 7 7 7 7 8 7 7 5 3 5 4 4 5 4 2 1 2 4 5 5 8 10 8 10 13 16 23 33 34 33 33 33 34 33 31 29 28
15 16 16 18 17 18 20 21 21 22 21 19 18 16 14 12 12 12 7 6 10 15 19 23 26 27 22 16 14 17 16 10 11 16 18 19 18 14 13 10 5 4 4 4 5 4 4 5 11 14 10 6 7 7 6 6 5 5 5 3 4 4 2 3 4 4 2 1 3 4 6 7 8 7 10 18 23 24 30 34 34 33 34 36 36 35 34 33
17 16 17 18 16 16 19 18 19 20 21 20 18 17 16 12 11 9 6 4 7 13 20 22 24 30 30 21 18 21 20 14 14 17 21 22 19 14 13 11 7 4 5 8 9 7 7 7 7 9 10 7 7 7 6 6 4 4 5 5 4 3 5 6 3 2 3 4 3 4 6 7 6 8 10 12 14 16 21 25 28 29 31 32 33 34 35 35
19 18 18 17 16 16 15 16 18 20 20 19 18 18 17 13 9 6 3 3 5 7 13 17 19 25 30 26 21 21 17 15 16 18 22 25 21 12 10 12 8 5 8 9 8 7 9 11 6 3 6 8 8 7 6 7 4 4 4 7 7 6 7 6 1 3 4 5 3 2 3 7 4 6 9 5 2 9 14 17 24 28 28 29 32 34 34 33
21 21 20 18 17 15 14 16 19 20 20 20 18 17 17 13 9 6 3 2 5 3 4 10 12 14 21 25 24 18 9 11 16 19 20 23 24 14 7 8 6 5 8 6 4 4 5 10 9 5 6 8 8 7 6 7 5 3 5 6 8 8 7 6 2 1 1 4 3 3 2 7 6 5 9 6 5 9 10 11 19 26 27 31 34 35 35 34
23 23 22 20 19 18 19 19 19 21 20 18 16 18 18 15 11 7 4 4 5 5 8 9 10 10 13 20 29 19 3 7 14 17 23 23 24 18 8 6 5 5 6 5 3 4 4 9 9 8 7 7 7 6 6 7 7 4 5 4 6 7 7 6 4 3 3 3 4 2 3 5 9 7 7 8 10 11 9 10 14 22 27 30 33 34 36 36
27 25 24 23 22 22 23 20 20 23 20 12 14 19 18 16 13 8 5 1 3 6 7 7 9 11 11 20 33 20 6 12 11 14 27 27 23 16 8 8 7 6 8 7 5 4 2 8 9 10 8 6 6 5 6 9 6 6 5 5 6 5 5 3 4 2 1 2 4 3 2 3 9 6 2 4 8 10 12 13 14 20 26 28 31 34 35 35
30 27 27 25 22 23 24 21 20 20 16 11 13 19 21 18 12 6 3 2 3 3 3 7 9 10 14 20 25 16 9 7 3 12 25 23 20 11 4 8 6 5 8 7 6 3 0 5 7 8 7 6 5 1 3 8 5 4 3 6 6 4 4 5 4 3 3 2 5 6 4 4 8 5 2 1 4 9 11 12 13 20 28 30 31 33 33 33
34 31 30 26 24 26 26 24 22 16 15 15 15 22 24 17 8 4 2 3 1 1 3 7 8 11 18 15 9 7 6 2 5 15 15 11 15 7 3 7 3 3 2 3 1 2 1 1 2 3 4 5 5 3 3 3 6 7 6 6 7 6 5 4 3 4 2 5 6 9 10 7 6 4 4 4 5 7 8 8 8 14 25 31 32 33 33 33
37 35 32 31 32 31 31 32 27 20 21 19 20 28 24 10 3 4 6 1 2 2 4 4 4 9 16 13 7 6 4 2 7 14 8 4 8 4 4 5 1 2 2 4 3 4 4 1 1 2 4 6 7 4 5 3 4 7 5 4 3 4 4 5 4 4 1 7 6 10 12 10 8 6 3 5 5 5 6 7 7 10 21 31 34 35 35 34
39 39 36 35 35 34 35 35 26 23 25 22 26 30 18 4 2 5 5 2 1 4 5 4 4 7 11 10 8 9 5 3 7 9 6 4 5 6 5 6 5 3 3 5 3 4 2 3 2 1 3 6 7 3 3 5 4 5 5 6 3 2 3 3 2 0 4 7 4 7 8 6 10 8 7 9 10 7 7 7 9 12 21 29 33 36 37 36
39 42 39 38 38 37 37 31 25 27 26 24 29 24 8 3 7 9 8 4 2 2 3 4 5 7 11 8 5 6 4 2 6 6 4 4 5 7 5 4 6 4 3 6 4 2 3 5 1 2 3 8 10 6 3 2 2 5 6 6 5 3 1 3 4 2 4 5 4 3 5 3 6 6 10 14 14 13 10 9 11 14 20 27 32 36 36 37
38 42 43 42 39 38 36 30 29 30 28 29 26 14 4 7 9 10 14 11 4 2 3 4 5 6 8 5 3 6 4 2 7 6 4 5 5 5 4 5 9 4 3 4 3 6 5 5 5 7 4 10 13 9 7 5 5 5 4 6 5 5 4 4 4 3 4 4 4 1 3 4 3 3 7 9 9 8 9 11 10 11 17 23 28 32 34 36
37 42 44 42 40 40 37 34 34 32 33 32 18 8 9 9 8 11 14 12 6 2 3 5 7 6 5 3 2 7 4 2 6 6 4 6 6 7 7 8 12 8 4 4 2 4 6 6 6 6 5 12 13 7 8 8 3 3 3 5 3 5 5 3 3 4 2 2 3 2 4 5 4 5 6 3 5 3 3 7 9 11 16 21 26 31 34 36
38 44 45 44 45 44 39 38 38 35 37 30 11 7 13 10 9 10 8 9 11 5 4 5 4 4 5 3 3 6 3 2 6 5 4 5 4 7 7 6 12 12 8 7 3 3 5 4 3 2 3 6 8 5 7 6 4 2 2 4 4 4 5 2 3 1 2 3 4 4 5 5 3 8 8 4 3 4 3 4 10 13 17 22 27 32 34 36
44 46 46 49 49 46 43 42 39 39 39 26 10 9 11 11 10 8 4 9 16 12 7 4 4 6 7 4 4 6 3 2 5 5 3 3 3 8 8 5 11 17 15 8 2 3 5 2 3 2 1 3 2 3 3 3 6 6 4 5 2 2 2 2 1 3 2 4 5 4 7 5 2 6 4 5 3 8 7 6 7 11 17 23 28 32 34 35
44 44 44 51 50 46 47 43 40 43 35 16 9 10 9 12 14 9 7 10 13 12 9 9 8 7 8 7 5 8 5 3 6 5 4 4 4 9 11 7 11 21 22 13 3 2 4 2 3 0 2 2 2 4 3 2 4 5 4 4 4 1 1 2 2 2 2 4 5 3 5 6 7 6 1 4 9 11 10 7 6 10 18 25 28 31 33 34
33 30 30 44 52 48 46 45 48 45 25 6 8 11 8 12 13 11 11 10 10 12 11 11 8 4 7 9 6 8 8 7 8 6 4 5 4 8 14 10 9 18 24 18 6 2 3 3 3 1 1 1 1 2 4 3 0 3 2 2 2 2 3 4 3 3 3 3 5 4 4 5 7 7 8 10 13 14 12 9 9 14 23 28 30 32 33 35
24 16 12 28 44 47 48 50 48 33 12 5 10 10 6 7 9 16 23 16 7 9 10 10 9 7 7 10 8 8 7 6 8 7 5 6 5 4 10 11 6 10 20 20 9 2 2 3 3 1 2 1 2 4 8 10 7 3 3 4 2 1 2 1 2 2 4 3 3 4 8 7 4 5 10 13 14 14 13 12 12 18 26 30 31 33 36 38
21 10 11 21 29 42 50 42 28 16 7 8 11 10 8 4 5 16 28 24 10 4 5 6 10 10 8 8 9 8 7 6 8 7 4 6 7 4 9 15 11 10 13 12 9 6 3 3 4 2 2 4 5 6 6 7 7 6 7 8 7 6 4 1 4 3 4 4 4 3 9 11 4 4 8 11 11 11 14 14 14 20 28 31 32 35 37 38
16 9 16 20 20 37 47 26 11 11 9 11 13 11 9 5 4 10 19 22 15 6 3 3 8 11 8 7 8 7 7 6 8 8 5 9 10 6 11 21 21 19 15 10 12 10 4 3 4 3 4 5 5 5 1 3 3 3 3 5 7 7 7 6 7 4 3 4 4 2 7 10 1 2 4 6 8 10 15 17 16 21 28 32 33 35 36 37
17 16 22 18 16 35 37 12 8 12 7 12 14 10 11 9 5 8 14 18 14 8 6 3 4 8 7 6 7 8 9 8 9 12 8 8 11 10 16 24 24 19 13 7 7 6 4 3 3 1 1 1 3 5 5 4 4 2 3 5 7 8 8 6 5 3 3 6 5 2 7 8 1 1 3 3 4 8 13 19 21 22 25 29 32 34 35 36
20 22 24 18 19 31 26 7 9 12 8 13 12 9 14 13 8 10 12 14 13 8 7 6 4 6 6 3 5 7 9 8 9 12 10 6 8 12 20 27 23 15 11 10 10 10 5 3 4 2 1 2 2 3 4 2 2 4 5 6 8 9 7 2 1 1 4 9 8 5 10 8 1 3 4 4 3 4 7 14 21 23 24 27 31 33 34 36
12 15 18 21 27 33 26 15 13 10 10 14 13 12 14 9 12 18 13 11 14 9 7 10 6 3 2 3 4 2 5 5 4 6 6 4 3 5 16 28 27 18 14 17 20 18 8 4 6 6 6 7 7 5 4 3 3 3 4 7 10 12 12 7 2 4 10 8 9 9 13 6 2 4 5 4 3 4 5 9 17 22 24 26 28 31 33 35
8 7 9 15 28 34 31 28 21 11 10 14 10 12 15 9 11 20 16 12 17 15 10 8 5 4 2 2 3 2 5 3 3 1 2 4 3 1 6 17 24 24 20 20 24 17 4 2 9 11 10 12 12 9 5 7 7 7 9 12 14 14 15 10 6 9 9 2 5 13 15 11 8 3 4 6 4 5 7 7 14 21 23 24 27 30 33 35
9 6 7 8 14 19 19 20 16 9 12 16 8 7 17 16 9 12 16 14 16 18 12 5 4 6 7 7 5 5 6 4 4 4 4 5 4 2 3 6 9 14 13 17 23 14 3 4 11 14 15 16 18 15 7 10 11 13 14 15 15 15 16 14 14 16 7 3 10 16 10 14 18 9 8 10 6 5 8 11 18 21 22 24 26 28 31 33
11 8 15 15 8 5 8 12 13 9 11 15 10 6 14 18 12 9 13 14 14 15 10 5 8 11 13 14 10 7 7 5 5 8 8 7 4 2 2 4 5 6 4 7 15 7 3 7 12 14 17 18 21 19 11 10 10 11 13 16 17 17 19 20 21 19 10 8 18 16 9 16 21 11 11 12 9 12 16 21 23 21 20 23 24 27 31 34
14 9 15 19 11 6 9 15 14 11 10 10 9 10 12 16 17 12 8 7 9 12 11 10 15 18 16 13 10 9 10 8 9 12 10 9 7 5 3 2 4 6 4 3 7 2 2 7 10 12 14 16 21 20 12 9 7 7 11 15 17 20 24 24 22 20 16 16 23 20 15 21 18 7 10 15 19 21 19 19 21 21 21 23 24 28 32 35
14 8 7 13 12 9 9 10 9 8 10 9 8 10 11 15 18 14 9 9 9 11 14 17 19 17 15 14 13 14 15 14 16 16 9 7 7 6 5 4 4 3 1 1 3 2 1 4 4 5 6 12 18 16 9 8 8 8 10 13 17 19 19 17 16 17 16 18 24 21 18 20 12 6 9 15 17 15 11 14 21 24 24 24 26 31 33 35
20 16 10 4 6 9 8 5 7 6 7 8 7 6 9 13 16 12 10 14 14 10 14 21 21 14 12 15 15 18 20 18 17 14 7 8 9 8 7 5 6 4 1 2 2 1 2 2 1 4 3 11 14 10 8 7 6 8 13 20 21 15 10 11 14 15 15 18 21 16 15 18 9 6 8 9 10 11 12 17 22 25 26 27 29 33 34 36
23 22 20 11 4 9 10 5 6 8 7 8 9 9 8 11 12 11 8 11 17 17 17 21 19 10 8 13 18 24 27 21 16 13 7 8 8 8 7 6 7 7 5 4 2 2 3 3 1 3 5 10 8 4 6 3 3 8 15 22 21 13 11 13 14 16 18 17 15 13 15 17 7 6 8 7 8 11 14 20 24 26 27 29 31 34 35 36
Wind_Direction
202 205 204 202 200 200 196 190 185 184 182 180 179 176 175 176 175 176 179 182 186 191 192 193 198 201 234 286 351 1 6 0 332 328 1 298 289 272 189 143 141 129 122 106 133 133 96 70 31 50 45 21 35 24 32 35 26 32 85 78 52 202 16 289 204 156 150 144 173 164 144 138 142 145 134 115 124 132 127 123 122 131 131 129 141 154 174 187
200 202 200 198 197 196 193 188 183 182 180 177 175 173 173 175 177 179 185 191 195 198 200 202 206 213 260 301 322 317 335 339 322 332 0 337 293 174 142 136 131 109 86 61 75 106 102 81 26 57 26 7 44 37 43 27 28 46 94 81 189 181 41 13 93 108 130 142 157 141 105 132 152 155 150 134 139 139 121 110 133 147 136 128 147 155 162 171
198 198 196 195 196 194 192 190 186 185 181 179 179 176 177 179 182 186 191 198 201 205 207 207 215 238 277 306 314 316 329 318 292 343 11 30 116 131 133 129 115 94 68 52 61 70 91 77 40 29 13 21 124 59 41 23 29 35 69 82 244 193 76 49 73 78 120 139 138 129 115 133 149 153 156 160 138 138 141 149 157 166 161 153 159 166 163 166
196 197 197 196 197 197 194 191 190 189 186 186 187 184 186 186 188 194 198 203 206 211 211 211 224 256 287 306 308 320 338 329 176 63 49 90 119 129 133 126 112 90 56 38 60 66 72 81 58 23 4 351 130 82 52 23 23 11 79 144 214 163 92 58 81 79 102 123 126 133 126 131 151 159 169 162 119 133 176 175 185 190 180 167 169 182 177 175
196 199 199 199 200 200 198 196 194 192 192 194 193 195 197 195 195 199 202 207 210 212 215 220 235 261 291 298 303 324 0 77 143 100 82 108 128 139 142 132 114 82 47 31 62 68 53 55 34 4 353 277 119 86 49 22 36 46 90 138 104 95 116 116 110 98 100 112 121 128 115 132 157 164 191 190 175 209 190 185 194 193 184 174 178 188 188 187
200 203 203 205 206 205 204 202 201 197 198 198 199 202 204 204 202 204 207 211 214 216 222 229 235 254 276 276 296 324 4 115 169 137 109 129 143 153 158 157 141 50 22 15 45 60 33 23 1 335 350 53 125 114 99 25 42 74 96 85 69 79 135 154 138 132 128 120 122 131 136 145 153 190 229 210 211 213 192 185 185 186 188 191 194 195 197 197
208 210 210 212 211 212 211 209 209 207 205 205 207 210 211 212 208 211 215 215 220 222 226 235 240 246 251 265 281 302 330 191 175 162 144 154 166 175 179 193 217 310 344 359 18 39 26 23 8 350 17 59 90 108 97 28 55 99 240 41 66 83 130 156 177 163 170 148 137 142 160 179 180 202 227 209 210 209 192 182 181 189 198 207 209 203 202 202
214 215 215 216 217 216 216 215 216 215 216 216 216 218 219 220 217 218 221 221 225 226 231 236 239 241 239 254 260 261 280 206 174 162 167 182 195 204 208 231 254 294 319 344 6 36 39 33 26 13 36 58 51 73 61 32 45 85 95 347 49 99 156 189 221 217 225 202 185 215 224 228 223 224 237 216 205 200 193 188 189 202 210 213 213 206 204 205
215 217 217 218 220 220 221 222 221 221 222 223 222 223 223 224 223 223 225 226 226 228 232 236 241 242 236 235 239 255 212 168 169 164 169 201 218 231 243 260 273 290 305 349 82 117 80 49 38 34 48 28 31 64 65 49 36 72 88 354 344 244 217 220 227 226 233 227 210 224 243 251 251 247 259 233 210 202 199 200 204 211 215 215 212 206 201 204
215 217 218 219 220 222 223 224 226 227 227 228 228 226 225 224 225 227 227 227 227 229 231 236 241 237 231 213 207 229 176 154 152 153 145 191 229 252 261 272 278 278 280 166 132 155 127 77 25 29 42 5 27 61 54 73 154 59 28 329 294 265 262 237 224 225 227 231 220 208 233 258 247 219 243 223 202 202 203 202 207 211 214 213 208 202 198 201
215 218 220 219 222 224 225 227 229 230 232 233 233 231 230 227 226 226 227 227 227 229 231 236 239 236 232 211 207 211 176 165 156 151 154 291 268 271 268 273 281 234 236 197 148 172 176 175 238 269 32 24 28 44 58 91 142 2 343 319 287 278 280 245 224 222 211 218 222 207 226 269 210 204 236 213 196 200 204 200 204 209 212 210 204 201 200 203
220 219 221 222 225 226 229 232 233 236 238 239 239 238 235 232 230 228 228 227 228 231 233 237 237 234 233 227 231 228 191 185 197 233 265 284 264 257 259 255 219 149 189 193 136 159 178 188 202 182 111 90 23 44 69 91 166 288 313 317 297 320 305 244 226 210 192 190 205 190 301 292 208 221 238 209 194 195 200 201 202 206 210 206 201 202 204 208
228 224 224 225 226 229 233 236 238 242 244 247 249 246 242 239 236 232 230 229 230 233 233 236 239 236 235 239 242 231 216 219 232 251 260 266 262 252 247 237 224 190 189 194 132 147 162 164 179 177 130 120 326 114 160 252 203 270 257 152 314 354 325 254 227 195 180 168 175 161 305 274 246 237 210 192 191 189 194 199 199 203 207 204 200 203 207 211
232 232 230 229 229 231 234 237 241 244 247 251 252 251 248 243 240 236 234 234 233 234 234 235 238 239 236 240 246 229 223 230 237 244 251 261 263 251 244 234 228 224 214 211 189 175 177 180 195 214 208 197 134 135 307 312 167 263 336 69 20 356 290 296 188 167 164 178 169 144 246 258 274 239 188 185 192 192 194 195 198 202 205 206 205 206 211 215
234 234 234 235 235 233 235 238 241 245 247 250 252 254 251 246 243 239 236 237 235 234 233 232 232 236 241 243 241 230 227 233 236 240 248 258 259 249 238 226 224 224 224 229 222 222 210 192 196 195 167 168 119 88 5 354 340 44 42 315 335 166 265 315 150 163 158 186 175 145 213 264 277 216 186 185 191 196 199 197 199 203 205 207 209 210 214 219
235 235 234 235 237 238 238 238 240 243 245 249 253 254 253 249 243 240 238 236 235 233 228 225 219 217 246 252 236 227 230 231 234 239 243 247 247 241 229 223 227 225 225 226 219 210 194 180 172 155 148 155 118 87 46 9 338 354 137 251 268 181 268 319 220 187 161 139 188 193 214 267 277 199 188 190 194 199 202 202 203 205 208 208 209 212 215 219
236 234 234 234 235 237 239 239 240 242 244 245 248 251 253 251 245 241 236 231 228 220 211 207 207 222 247 245 233 230 230 228 227 231 232 232 236 236 226 220 215 207 203 195 188 177 175 168 151 161 166 154 118 94 63 352 303 313 221 242 247 210 228 270 289 233 166 139 197 224 236 252 264 194 192 200 202 201 204 208 208 206 209 210 210 213 218 220
239 235 233 233 233 234 236 238 240 242 245 243 242 245 246 247 245 239 232 228 216 198 204 198 174 244 253 231 226 231 229 225 227 226 222 221 224 223 211 201 186 176 166 167 173 163 163 159 135 142 358 338 151 112 123 223 211 208 186 222 261 260 235 217 262 221 166 160 199 202 240 252 264 224 204 209 206 205 210 212 210 209 209 210 211 213 218 221
242 238 233 231 231 232 233 234 235 239 242 242 241 240 241 242 241 239 231 216 196 177 199 204 191 176 251 220 219 226 223 212 214 217 213 209 204 196 181 165 159 157 147 144 177 171 161 113 85 118 222 215 202 167 188 206 183 177 178 175 206 246 273 238 239 211 168 171 218 205 224 245 255 248 219 215 209 210 218 220 215 212 210 210 211 214 217 220
241 240 235 230 229 230 231 231 230 233 236 239 238 233 230 219 218 240 226 215 215 215 216 203 204 210 204 187 206 209 200 192 201 205 200 196 187 175 160 149 149 148 146 153 182 185 162 139 166 201 210 204 203 201 207 208 195 211 222 217 210 219 268 268 258 239 165 159 238 222 225 246 248 251 236 220 211 213 221 225 222 213 210 212 212 213 215 217
241 238 235 232 228 228 229 228 225 225 229 231 226 220 208 191 189 231 220 228 237 234 233 226 217 225 229 224 212 201 184 181 193 196 189 183 175 164 160 154 140 170 218 166 138 152 159 184 222 220 215 201 204 211 215 223 229 244 245 252 257 233 255 269 267 256 165 171 260 253 247 259 252 253 251 220 200 214 220 219 221 215 211 213 213 212 211 212
248 241 237 234 229 226 226 225 223 222 224 223 216 212 208 207 218 231 233 257 257 244 240 237 232 234 232 232 228 206 187 175 184 189 180 174 172 172 169 157 144 197 203 138 102 132 190 231 239 231 222 209 224 227 216 220 226 236 232 225 251 251 270 297 317 309 103 176 261 290 278 264 258 256 254 222 204 219 223 220 221 216 210 212 212 209 207 207
255 249 242 238 231 226 225 223 221 220 219 219 215 210 210 215 220 229 240 278 274 255 243 237 232 229 222 220 214 200 195 186 185 186 178 173 176 180 168 157 175 187 163 153 156 173 209 242 239 229 218 209 239 255 235 222 221 222 203 180 235 251 250 277 300 297 296 234 258 307 298 271 265 263 257 240 228 227 229 227 225 219 214 214 213 212 209 207
256 251 248 244 235 228 225 221 218 220 218 217 217 210 206 209 211 221 236 272 282 258 248 243 236 228 220 213 206 202 203 203 197 188 180 178 175 173 176 175 172 168 192 195 185 195 212 225 229 208 203 205 224 246 232 209 238 248 196 184 213 222 213 229 275 320 338 335 322 337 312 280 257 250 257 256 240 233 234 229 226 225 223 220 215 213 212 213
248 248 248 244 237 230 223 215 212 216 217 216 218 213 206 200 190 193 223 284 279 259 252 242 236 235 224 215 209 203 207 216 214 202 191 189 182 168 181 189 175 182 208 201 192 217 230 231 233 170 190 208 211 228 213 184 216 275 232 203 207 212 223 232 280 33 6 323 303 60 307 283 273 245 258 285 242 230 232 223 222 224 221 218 214 211 212 214
241 242 243 238 234 222 206 211 216 216 218 219 215 206 202 187 159 164 146 2 279 228 194 208 217 229 216 207 199 191 218 233 213 209 203 199 196 185 172 184 185 200 197 184 198 234 221 214 217 195 189 202 207 227 221 176 171 253 248 208 207 217 227 230 219 73 266 268 286 95 166 273 290 260 252 256 245 238 229 222 224 220 214 213 212 210 210 211
238 237 235 231 227 212 202 213 220 215 218 220 210 196 190 173 147 147 122 9 280 183 148 179 188 190 196 194 186 181 228 191 178 197 197 194 198 195 191 185 181 199 175 152 228 257 168 179 197 198 191 191 197 221 223 166 147 231 249 178 180 205 215 216 183 177 219 252 321 15 140 271 281 264 244 226 236 252 242 234 231 220 212 210 210 210 210 212
236 235 232 225 223 219 214 216 219 218 217 207 197 190 176 162 155 139 113 320 251 145 146 179 171 174 179 181 184 179 135 143 150 187 187 187 194 195 209 200 175 188 177 161 217 269 143 167 183 183 184 193 198 220 197 156 151 240 234 125 132 164 168 143 118 144 297 3 304 285 140 264 272 264 256 200 222 251 247 237 231 220 213 208 207 209 210 212
231 229 230 222 220 220 212 211 218 220 212 187 180 180 164 157 157 126 95 214 188 118 142 167 161 164 157 166 183 175 129 132 137 175 179 185 190 185 207 201 174 174 197 197 207 249 195 180 184 167 175 199 195 235 170 164 187 210 147 82 68 69 75 76 91 93 27 335 242 221 172 241 269 243 190 192 228 241 243 240 233 219 213 210 207 206 207 210
231 224 224 215 212 213 204 205 212 204 186 177 171 166 160 158 146 121 181 219 208 134 128 153 167 165 153 155 184 173 132 81 110 149 165 181 183 175 140 181 161 119 218 300 243 247 324 158 184 149 168 172 144 79 40 166 174 134 93 56 41 22 32 42 48 78 46 275 232 200 186 201 266 263 185 201 223 220 229 243 239 215 209 211 210 206 206 207
237 225 219 213 210 210 205 205 205 188 173 174 169 162 158 154 124 174 197 255 334 157 124 149 175 160 159 158 174 175 140 87 135 146 154 162 172 166 119 157 150 78 317 322 321 316 348 73 242 160 151 126 106 74 26 37 117 109 87 79 62 347 13 22 2 56 210 257 229 199 190 189 233 262 228 234 254 229 216 229 232 207 204 210 210 209 208 208
243 228 218 216 214 212 213 211 203 185 175 173 170 167 162 151 199 219 203 67 332 195 153 173 182 163 170 170 176 174 141 133 164 159 159 155 171 186 182 184 174 153 251 237 248 316 309 238 229 129 168 157 123 88 19 6 39 95 106 111 115 286 359 3 304 155 226 255 252 195 178 196 236 252 254 257 267 253 226 230 236 220 208 207 207 208 208 208
245 235 222 216 216 214 215 212 197 183 176 172 173 171 171 192 190 205 205 185 215 197 138 150 165 163 165 169 187 168 123 142 177 169 158 146 173 208 230 233 191 176 198 192 196 221 270 298 235 142 244 193 165 156 185 251 167 147 139 139 156 181 223 266 244 254 257 264 285 188 160 233 269 267 245 245 257 256 249 259 257 237 220 212 207 206 206 206
243 240 228 217 218 219 215 204 190 182 172 169 173 173 192 213 195 194 207 215 205 106 92 123 130 146 164 176 195 163 142 190 174 158 146 147 173 215 237 245 221 206 103 150 186 183 210 289 206 183 202 184 185 190 169 140 155 179 147 137 155 155 181 227 206 223 260 276 297 255 158 203 217 252 239 244 272 270 258 262 254 236 223 212 204 201 202 204
238 241 233 221 218 220 215 200 189 182 173 170 174 182 189 201 206 202 210 213 198 90 68 116 115 131 187 232 221 176 165 197 172 157 165 170 185 200 196 212 209 190 141 173 218 168 194 257 223 186 153 166 185 191 134 112 141 225 115 118 183 183 184 234 206 188 205 294 285 214 216 221 211 260 260 266 306 290 257 246 215 204 203 195 194 196 199 203
236 235 230 221 217 217 212 199 189 181 176 173 178 203 197 205 200 196 202 187 188 183 105 115 118 136 193 216 226 204 171 126 164 167 196 196 208 205 201 212 197 190 185 178 181 156 178 268 275 103 99 172 188 178 147 152 175 174 136 173 202 173 164 215 272 5 65 282 262 193 242 285 309 276 250 190 257 282 283 230 193 190 188 186 192 195 199 202
232 226 219 216 216 217 211 199 190 186 183 182 199 204 200 220 207 185 177 173 184 182 147 175 189 160 183 195 204 206 178 111 166 173 191 195 229 210 204 216 189 194 205 189 184 195 161 245 285 115 153 238 205 124 117 136 139 132 186 200 149 68 96 131 259 342 32 266 269 202 234 263 258 267 254 140 209 259 258 232 199 190 187 191 197 198 201 203
226 218 215 216 216 216 210 199 192 193 191 188 220 218 207 219 212 193 179 173 175 172 174 212 202 156 178 190 188 192 180 166 179 182 184 191 242 206 188 201 193 197 205 198 209 242 154 195 287 123 187 263 36 114 107 37 119 135 186 184 121 113 190 130 183 236 192 253 282 246 229 232 214 223 182 162 212 234 236 219 209 204 198 200 202 200 201 202
222 216 219 219 215 213 210 199 193 196 196 187 211 219 221 216 209 201 196 182 169 175 194 211 198 168 185 180 169 181 187 185 174 174 186 190 235 203 180 188 199 197 197 192 199 244 151 200 256 321 223 252 32 137 164 199 217 56 76 155 116 136 173 168 178 173 161 229 277 279 253 237 218 198 179 192 210 218 217 205 209 215 208 206 204 200 200 202
224 223 240 226 217 215 207 196 192 194 200 209 206 213 225 215 200 206 215 215 182 180 205 204 187 190 194 179 167 172 189 195 175 180 207 194 213 229 188 181 177 185 189 189 196 177 125 209 219 315 331 196 179 197 188 186 183 148 150 178 179 123 117 179 216 160 146 189 237 264 270 260 226 185 184 194 206 212 208 200 211 219 214 211 208 204 204 205
224 227 255 240 227 215 203 193 193 198 198 208 217 224 223 217 197 205 217 228 235 216 213 197 187 196 194 181 176 172 177 188 183 190 221 205 208 244 197 181 166 161 173 188 205 197 187 196 164 152 230 210 222 239 213 189 180 177 183 184 180 169 142 187 247 213 156 200 201 212 272 269 229 183 195 194 203 211 205 201 211 219 216 214 213 211 210 210
218 222 237 241 236 208 195 188 200 202 197 208 214 215 206 209 213 195 207 225 241 255 239 202 194 200 198 186 182 171 168 180 191 197 217 214 209 215 198 186 174 163 161 182 204 192 152 129 153 180 201 206 245 274 261 132 125 132 186 183 177 181 173 184 228 220 159 235 223 151 277 276 244 162 227 217 217 218 210 206 212 220 220 218 216 214 214 214
208 225 228 234 236 205 192 188 207 196 209 220 214 207 198 203 202 178 190 208 221 227 223 220 187 200 209 188 174 172 175 185 195 198 211 221 216 216 199 185 175 168 165 179 197 170 99 111 173 209 352 19 328 335 8 48 86 108 221 188 182 204 200 194 215 183 164 226 202 159 260 266 329 349 303 297 251 232 220 213 214 221 223 219 217 215 213 212
205 227 228 232 236 210 195 192 198 194 210 215 216 216 206 207 203 190 192 198 204 206 211 214 190 195 212 175 151 170 184 197 206 205 209 214 219 219 201 187 177 173 181 184 175 163 159 174 154 133 324 325 336 335 337 336 172 200 226 196 192 209 205 213 290 123 245 229 174 183 249 246 306 325 336 2 326 274 243 223 220 224 224 219 216 215 212 209
203 224 225 224 224 212 207 212 197 191 203 203 210 216 209 212 209 207 205 202 206 205 209 217 200 165 181 123 104 152 195 195 199 215 221 212 227 221 198 193 186 183 198 192 173 163 165 178 157 161 208 222 227 229 208 192 182 208 223 189 194 203 196 202 219 214 242 229 161 200 244 248 14 334 311 327 329 296 271 237 226 228 228 222 215 213 211 208
195 209 212 207 210 211 218 221 206 194 202 202 208 213 211 217 211 207 205 206 213 212 217 227 194 155 179 130 116 197 218 192 145 209 247 208 229 324 196 203 197 195 203 188 165 153 137 203 179 182 202 217 235 241 170 137 158 202 211 194 196 204 197 195 214 222 227 193 190 225 237 254 268 266 274 274 247 244 259 244 230 228 227 224 217 215 213 210
194 194 199 190 208 220 232 230 214 200 196 197 195 196 206 213 210 196 197 206 212 208 215 232 183 184 205 203 208 219 216 198 174 213 234 213 236 309 326 285 237 213 205 177 165 151 101 198 192 194 206 220 240 244 188 152 181 201 203 200 201 202 196 195 213 223 199 124 248 241 215 244 254 230 224 245 226 227 248 236 232 228 223 221 217 213 211 209
214 204 203 201 204 213 229 231 225 218 201 193 190 188 200 209 207 187 194 208 208 200 204 212 205 211 210 206 214 221 215 214 215 227 228 213 220 240 267 320 305 294 320 172 180 165 117 194 199 201 212 223 237 239 210 179 199 204 199 203 203 198 198 204 214 222 199 193 249 248 192 229 250 230 216 228 206 213 227 225 227 227 223 221 213 208 208 207
226 225 207 206 210 200 210 220 218 219 215 196 195 204 199 203 208 200 187 192 200 199 197 204 214 215 210 204 205 214 214 208 220 231 221 203 198 190 214 265 247 264 301 188 204 206 136 206 203 199 215 228 235 237 217 187 205 221 209 209 208 203 204 207 212 220 215 218 243 248 234 245 252 212 209 225 218 222 228 223 222 222 222 217 209 208 210 209
227 234 205 203 219 223 213 203 190 204 217 200 199 213 206 204 208 205 191 178 184 191 193 209 220 210 202 203 201 216 221 208 220 231 206 189 206 191 202 218 187 216 291 191 257 340 125 228 205 165 209 239 242 240 218 192 213 235 234 227 221 215 212 211 215 220 220 228 241 246 252 260 252 172 205 225 216 217 220 215 218 221 221 215 208 211 212 211
240 245 249 236 221 215 207 172 155 187 210 196 196 208 211 214 208 200 204 203 200 190 185 208 220 207 199 207 206 221 225 212 224 238 191 179 210 202 203 199 151 135 140 186 222 75 143 228 29 86 200 244 249 237 210 207 225 245 254 246 232 218 206 213 219 217 214 226 239 245 252 257 244 175 202 207 187 197 209 212 218 222 221 214 211 213 214 214
246 248 253 262 244 206 204 177 168 195 201 188 192 193 203 222 211 195 203 213 214 213 203 208 216 202 195 211 213 226 231 226 236 247 210 186 197 184 184 178 149 152 170 172 165 127 156 190 179 135 212 249 255 193 166 179 220 240 248 246 237 216 198 213 224 224 217 218 228 231 239 250 239 172 205 208 188 203 212 215 222 223 218 214 216 218 217 216